STARLINK-36077

Last updated on Fri Dec 19 2025 00:02:08 GMT+0000 (Coordinated Universal Time)

1 66903U 25283AB 25352.58336806 -.01591371 00000+0 -10757-1 0 9999 2 66903 53.1553 44.3275 0001109 65.2550 110.6410 15.77504447 3366
UTC large
Height (km)
Speed (km/s)
/
Latitude / Longitude
Inclination (degrees)
Orbital Period (minutes)
Azimuth
Elevation
Range (km)
Doppler Factor

Next 0 passes for location: London (51.5072 / 0.1276)

Sorry there are no passes over London.